Temperature
15 16 15 15 15 15 15 15 15 15 16 17 17 17 18 19 19 18 17 16 15 15 14 13 12 12 12 11 11 11 10 10 10 10 10 10 9 9 9 8 8 8 7 7
14 15 16 15 15 15 15 16 15 16 16 18 19 19 18 19 18 18 17 16 16 15 14 14 13 12 12 12 11 11 10 10 10 10 9 9 9 9 8 8 8 7 7 6
12 14 14 13 14 15 15 15 15 15 16 17 17 17 17 18 18 18 17 16 16 15 15 14 14 13 12 12 11 10 10 10 9 9 9 9 9 8 8 8 7 7 6 6
11 12 11 13 15 15 15 16 16 16 16 17 17 18 18 18 18 17 17 16 16 15 15 14 14 13 12 11 10 10 9 9 9 9 8 8 8 8 7 7 7 6 6 5
10 10 11 14 15 15 15 15 16 16 16 16 18 17 17 17 17 17 16 16 15 15 15 14 13 13 12 11 10 9 9 9 8 8 7 7 7 7 7 6 6 6 5 5
9 10 11 14 15 16 15 14 16 16 15 15 15 13 14 16 16 16 16 15 15 14 14 14 13 12 11 11 10 10 9 9 8 7 7 7 7 6 6 6 5 5 4 4
9 10 12 15 15 15 13 13 16 16 16 15 13 14 15 16 16 15 15 15 14 14 14 13 12 12 11 10 10 9 9 8 7 7 6 6 6 5 5 5 4 4 4 3
10 10 11 14 14 14 14 16 17 17 17 16 16 16 15 15 15 14 14 14 14 13 13 12 12 11 11 10 9 9 8 7 7 6 6 5 5 5 4 4 4 3 3 2
11 12 14 14 14 16 17 16 16 16 16 16 15 15 14 14 14 13 13 13 13 12 12 11 11 10 10 9 9 8 7 7 6 5 5 4 4 4 4 3 3 3 2 2
12 13 13 14 15 15 16 16 16 16 16 16 15 14 14 13 13 13 12 12 12 12 11 11 10 10 9 9 8 7 7 6 5 5 4 4 3 3 3 3 2 2 1 1
12 12 12 13 15 15 15 15 15 15 15 15 15 14 14 13 13 12 12 12 11 11 11 10 10 9 9 8 7 7 6 5 5 4 4 3 3 3 2 2 2 1 1 0
11 12 12 12 15 15 14 15 15 15 14 14 14 14 13 13 12 12 12 11 11 10 10 10 9 8 8 7 7 6 5 5 4 4 3 3 2 2 2 1 1 0 -0 -1
14 15 15 15 15 14 14 14 14 14 14 14 13 13 13 13 12 12 11 11 10 10 9 9 8 8 7 6 6 5 5 4 3 3 3 2 2 1 1 1 0 -0 -1 -1
14 14 13 14 14 14 14 14 13 13 13 13 13 13 12 12 11 11 11 10 10 9 8 8 7 7 6 6 5 4 4 3 3 2 2 1 1 1 0 -0 -1 -1 -1 -2
12 13 13 13 13 13 13 13 12 12 12 12 12 12 12 12 11 10 10 9 9 8 7 7 7 6 5 5 4 4 3 3 2 2 1 1 0 -0 -1 -1 -2 -2 -2 -3
11 12 12 12 12 12 12 12 12 12 12 11 11 11 11 11 10 9 9 8 8 7 7 6 6 5 5 4 3 3 2 2 1 1 1 0 -0 -1 -2 -2 -3 -3 -3 -4
10 9 10 10 11 11 11 11 12 12 11 11 11 10 10 9 9 8 7 7 7 6 6 5 5 4 4 3 3 2 2 1 1 0 -0 -1 -1 -2 -3 -3 -4 -4 -4 -5
11 11 11 12 12 11 11 10 10 10 10 10 10 9 9 8 8 7 6 6 5 5 4 4 4 3 3 2 2 2 1 0 -0 -1 -1 -2 -2 -3 -3 -4 -5 -5 -5 -6
10 10 10 11 11 11 10 10 9 9 9 9 8 8 8 7 7 6 6 5 5 4 4 3 3 2 2 2 1 1 0 -0 -1 -1 -2 -3 -3 -4 -4 -5 -5 -6 -6 -7
9 9 9 9 9 9 9 9 8 8 8 8 7 7 6 6 5 5 4 4 4 3 3 2 2 1 1 1 0 -0 -1 -1 -2 -2 -3 -4 -4 -5 -5 -6 -6 -7 -7 -7
8 8 8 8 8 8 8 8 8 7 7 6 6 6 5 5 4 4 3 3 2 2 2 1 1 1 0 -0 -1 -1 -2 -2 -3 -3 -4 -4 -5 -5 -6 -6 -7 -7 -7 -8
7 7 7 7 7 6 6 6 6 6 6 5 5 5 4 3 3 2 2 2 1 1 1 0 -0 -0 -1 -1 -2 -2 -3 -3 -4 -4 -5 -5 -6 -6 -7 -7 -7 -8 -8 -9
5 5 6 6 6 5 4 4 5 5 4 4 4 3 3 2 2 2 1 1 0 -0 -0 -1 -1 -2 -2 -2 -3 -3 -4 -4 -5 -5 -6 -6 -7 -7 -7 -8 -8 -8 -9 -9
4 4 4 3 4 4 3 2 2 2 2 2 2 2 2 1 0 0 0 -0 -1 -1 -1 -2 -2 -2 -3 -3 -4 -4 -5 -5 -5 -6 -6 -7 -7 -7 -8 -8 -8 -9 -9 -9
2 2 2 2 2 1 1 0 0 0 0 0 -0 -0 -0 0 0 -1 -1 -1 -2 -2 -2 -3 -3 -3 -4 -4 -4 -5 -5 -6 -6 -7 -7 -7 -8 -8 -8 -9 -9 -9 -10 -10
-0 -0 -0 -0 0 -0 -0 -0 -1 -1 -1 -1 -1 -2 -1 -1 -1 -2 -2 -2 -2 -3 -3 -3 -4 -4 -5 -5 -5 -6 -6 -6 -7 -7 -7 -8 -8 -9 -9 -9 -9 -10 -10 -10
-2 -2 -2 -3 -3 -2 -2 -2 -2 -2 -2 -2 -2 -2 -2 -2 -2 -3 -3 -3 -3 -4 -4 -4 -5 -5 -5 -6 -6 -6 -7 -7 -7 -8 -8 -8 -9 -9 -9 -10 -10 -10 -10 -10
Wind_Speed
13 10 17 18 20 22 23 20 15 15 15 12 9 9 8 8 8 7 7 8 9 9 9 9 10 10 10 10 10 11 11 11 11 10 10 9 9 9 9 9 9 8 7 7
15 13 11 14 20 22 24 22 20 16 15 9 7 5 5 6 6 7 7 8 9 10 9 10 11 11 10 11 10 11 11 10 10 10 10 10 10 9 9 8 8 8 8 7
14 13 9 15 18 20 19 20 20 21 18 9 9 8 7 7 7 7 7 7 8 9 9 10 10 11 11 10 9 10 10 10 10 10 10 10 10 9 9 9 7 7 7 7
7 9 14 13 11 16 17 17 18 16 11 10 11 8 6 6 7 7 7 7 8 8 8 8 8 9 9 9 10 10 10 10 10 10 9 9 9 9 8 6 7 6 7 7
6 9 9 8 13 17 18 18 16 16 13 11 8 4 5 6 6 7 6 6 6 7 7 8 9 9 10 9 9 10 10 10 10 10 10 9 9 8 6 6 6 6 6 6
7 8 11 9 11 10 10 15 14 16 15 12 10 8 7 6 7 6 7 6 7 7 8 8 8 10 10 9 9 9 9 9 9 9 9 9 8 7 5 5 5 5 5 5
9 7 8 6 11 12 11 10 10 14 13 12 12 10 7 8 7 8 8 8 8 8 7 7 8 10 9 9 8 8 8 8 8 8 8 7 6 5 5 5 5 4 5 5
10 8 8 5 12 13 7 3 6 8 10 11 9 9 9 10 9 10 9 9 9 8 7 7 8 9 9 8 7 8 8 8 8 7 6 6 6 5 5 5 5 4 4 4
10 10 4 10 9 8 5 5 4 5 6 9 9 9 9 9 10 9 9 8 8 9 9 7 7 8 9 8 9 9 9 8 7 7 6 6 6 5 4 4 4 4 4 4
6 8 9 9 7 5 4 5 6 6 7 9 9 10 10 10 9 9 8 8 8 9 9 7 7 8 8 9 9 10 9 8 7 6 5 4 4 4 4 4 4 4 4 5
9 6 8 9 9 8 5 6 7 7 7 9 11 10 10 10 10 9 8 7 8 9 9 9 8 8 8 9 9 9 8 7 6 5 5 4 3 3 4 5 5 5 5 5
9 9 7 9 10 9 8 8 8 8 7 7 9 10 9 9 9 9 9 9 9 9 9 9 9 8 8 8 8 9 7 6 5 4 3 3 2 1 3 4 7 8 9 8
6 7 6 7 8 9 10 9 9 9 9 8 8 9 10 9 8 9 10 10 10 10 10 10 9 9 8 7 8 8 7 6 4 4 3 3 3 3 3 4 6 9 11 12
4 4 4 5 6 9 9 9 8 8 8 8 8 9 10 9 9 10 10 9 10 10 10 10 10 8 7 7 7 7 6 6 5 3 3 3 3 3 3 4 4 5 8 12
4 4 6 6 5 6 8 9 9 8 8 8 8 10 11 11 11 10 9 10 11 10 9 10 9 8 7 7 7 6 5 4 3 3 2 2 3 3 3 4 5 5 5 7
5 4 6 7 8 8 8 9 10 10 9 9 9 9 9 10 10 10 10 10 11 11 9 9 9 8 7 7 6 5 4 4 3 2 2 2 3 3 4 4 5 5 6 6
9 8 8 8 9 9 8 8 10 10 10 10 10 11 12 12 12 10 9 8 8 8 8 9 8 7 7 6 6 4 3 3 3 2 3 3 3 4 4 5 6 6 6 8
10 10 10 10 10 10 9 8 9 10 10 10 12 13 13 13 12 11 10 10 10 8 7 7 8 7 6 5 5 3 3 2 2 2 3 3 4 4 4 5 6 8 7 8
8 8 7 8 9 10 9 8 9 10 11 12 13 12 11 11 11 11 11 11 10 8 5 7 9 7 5 5 4 3 2 2 2 2 3 5 6 4 5 6 6 7 7 7
7 7 8 8 8 9 10 10 11 11 11 12 13 13 12 11 11 11 10 7 5 6 7 7 7 5 5 4 3 2 2 2 2 3 3 3 4 5 5 6 7 7 7 8
8 9 10 10 10 10 10 12 13 12 11 11 13 13 12 11 10 10 10 7 5 7 7 8 5 4 4 3 2 1 1 2 2 3 4 4 5 6 6 7 7 8 9 9
9 10 11 12 12 11 10 10 12 13 13 12 12 13 13 12 10 9 7 6 6 8 6 4 3 4 3 1 1 1 1 2 3 3 4 5 5 6 7 8 8 9 9 9
10 11 12 13 13 13 12 11 12 12 13 13 13 13 12 10 7 8 7 5 5 7 5 3 3 3 1 1 0 1 2 3 3 4 5 5 6 7 7 8 8 9 9 9
12 13 13 13 14 15 15 12 12 12 13 12 11 10 10 9 7 6 7 8 8 7 4 3 3 1 2 1 1 2 3 3 4 5 5 6 6 7 8 9 9 9 10 11
13 14 15 15 14 13 14 14 14 14 13 11 11 10 8 6 7 7 6 6 7 6 4 3 2 3 2 1 2 3 3 5 6 6 6 7 7 8 9 9 10 10 10 11
13 12 11 11 11 11 11 11 11 10 10 10 9 8 8 8 8 7 6 5 5 4 3 1 2 2 2 2 3 4 4 6 7 7 7 8 9 10 10 10 12 11 11 11
13 12 12 12 10 9 9 10 11 10 9 9 9 7 7 7 6 6 5 4 3 2 1 1 1 2 3 3 4 5 5 6 7 7 8 8 9 9 10 11 11 11 11 12
Wind_Direction
225 209 185 198 207 210 216 220 225 229 231 230 214 201 198 193 184 175 173 174 180 181 182 179 178 180 180 179 174 169 168 171 173 168 163 161 161 161 161 162 167 168 173 182
231 230 214 209 210 212 218 223 231 239 242 234 238 216 212 207 190 183 187 186 181 180 180 182 182 182 179 177 173 167 170 171 166 163 162 163 162 161 161 165 168 171 181 188
224 221 230 234 218 215 218 223 224 233 237 234 243 232 218 208 198 193 191 185 181 180 183 183 180 177 177 173 164 165 167 166 165 164 164 164 163 162 168 172 172 180 188 193
206 202 224 234 212 218 224 226 223 230 228 222 230 224 207 198 196 194 186 180 177 172 173 172 164 161 158 155 158 162 164 165 164 163 163 161 163 169 171 171 177 184 193 199
193 209 237 235 204 204 214 231 221 224 224 221 214 219 236 205 183 181 176 161 156 155 152 148 149 149 146 151 154 158 164 165 163 161 160 163 170 172 171 172 184 190 193 201
192 204 219 214 189 180 193 240 221 215 217 207 183 211 226 186 168 159 140 129 126 123 122 133 141 140 143 150 153 162 162 158 155 156 161 166 169 169 169 174 185 187 200 208
198 213 242 216 167 146 185 229 204 201 201 191 193 201 167 143 133 128 124 122 119 119 123 133 135 135 142 147 156 151 141 140 144 149 155 158 160 164 165 170 175 191 208 220
197 209 228 176 154 173 198 172 169 179 185 181 175 151 139 133 131 128 126 127 126 123 122 124 131 136 139 143 137 129 132 135 139 142 147 151 155 161 163 166 181 202 218 236
197 213 194 168 180 192 164 157 155 154 154 152 150 151 146 143 141 140 139 135 129 128 124 122 127 133 136 137 131 130 131 133 135 136 141 150 157 163 166 172 187 210 220 238
204 208 194 189 182 182 164 151 143 139 142 145 149 150 148 147 146 144 140 138 134 131 130 127 121 121 127 128 127 129 131 132 135 139 144 147 152 163 173 185 199 215 228 242
217 197 173 197 196 183 161 133 128 127 140 149 146 150 152 151 151 148 142 139 139 140 137 133 125 121 123 127 128 128 130 132 135 140 148 155 164 180 190 203 206 218 227 232
210 196 186 201 198 179 168 171 161 147 140 142 149 152 149 149 148 145 143 141 139 138 136 133 128 125 125 127 129 132 135 137 139 143 146 153 166 212 235 238 248 251 255 258
201 191 188 178 183 178 177 175 165 156 154 150 148 147 145 143 142 141 142 145 146 143 138 134 131 130 129 128 129 132 138 142 141 148 158 169 179 201 254 285 273 269 270 274
189 163 179 185 183 174 167 160 150 141 141 144 143 138 136 135 137 143 148 147 138 134 134 134 133 134 131 126 126 128 130 139 146 157 169 183 200 215 228 250 273 276 274 279
197 178 177 161 145 143 140 137 138 141 140 134 134 138 141 144 146 144 136 131 129 130 134 136 136 135 129 127 129 132 134 142 147 157 173 196 214 230 242 252 261 273 278 282
174 145 143 148 154 148 146 150 155 157 152 145 141 142 141 135 130 126 129 134 139 144 143 138 137 134 129 129 129 129 137 152 156 166 189 215 229 241 253 259 266 271 274 277
171 178 174 170 168 167 171 168 162 157 152 149 146 137 130 126 125 126 126 123 125 127 129 131 131 128 128 132 133 138 143 162 179 191 212 226 237 246 253 259 265 270 271 280
195 193 183 175 172 168 164 156 149 148 148 144 136 134 138 141 142 138 129 120 113 107 110 121 124 124 126 129 131 137 147 168 190 210 230 240 253 251 257 264 269 275 280 286
187 177 169 163 160 157 153 147 142 138 135 137 138 139 137 133 133 131 129 127 129 130 131 127 128 125 129 136 133 137 155 187 221 239 246 268 278 268 268 269 272 274 279 282
170 159 148 138 133 135 135 131 128 128 130 132 128 125 124 126 128 126 121 115 119 131 133 129 126 129 132 136 130 147 181 212 237 253 260 264 270 272 271 272 274 278 279 280
152 140 133 128 122 121 127 130 131 130 128 129 132 132 128 123 121 122 121 115 111 117 123 125 123 127 129 138 134 172 210 232 249 259 266 270 273 275 276 278 281 284 284 284
137 132 128 123 119 113 111 116 122 123 121 119 118 121 121 120 114 103 95 115 126 121 114 112 117 127 134 118 146 210 239 252 261 265 267 269 272 277 280 282 283 285 285 285
123 123 121 120 118 111 102 102 109 115 117 120 122 123 121 120 119 119 113 111 114 111 103 106 118 117 65 46 207 256 264 268 270 271 271 272 274 277 280 282 282 283 284 284
111 110 111 111 110 109 105 101 99 101 101 100 101 105 111 110 93 83 105 114 109 99 97 105 91 46 360 24 296 277 274 274 274 274 275 275 276 277 278 280 282 283 282 283
107 109 111 113 112 112 111 109 104 101 99 97 90 84 83 91 103 104 99 100 98 86 85 74 31 358 358 313 287 279 277 275 278 282 275 279 281 283 283 282 283 284 284 283
102 103 102 101 107 114 117 115 111 109 108 104 95 88 87 87 91 93 92 88 83 72 65 48 4 340 322 298 290 286 284 291 294 291 285 285 284 283 283 282 282 282 283 283
95 97 98 96 93 97 104 106 108 107 107 108 103 93 90 89 89 87 84 81 74 62 40 3 336 315 302 295 290 287 285 284 284 283 283 283 284 284 284 283 284 284 283 282
Height
1382 1380 1385 1393 1397 1400 1403 1404 1411 1407 1407 1404 1402 1403 1404 1406 1409 1412 1414 1416 1418 1419 1421 1423 1425 1428 1431 1434 1437 1441 1444 1448 1451 1455 1459 1463 1466 1470 1473 1476 1478 1480 1482 1483
1382 1378 1379 1385 1388 1391 1393 1395 1397 1399 1398 1393 1395 1397 1399 1402 1404 1407 1410 1412 1414 1415 1417 1419 1421 1423 1426 1429 1433 1436 1440 1443 1447 1451 1455 1458 1461 1465 1468 1470 1473 1475 1477 1478
1384 1380 1382 1386 1381 1383 1385 1385 1388 1392 1389 1391 1392 1393 1395 1397 1400 1402 1405 1407 1409 1411 1413 1415 1417 1419 1422 1425 1429 1432 1435 1439 1443 1446 1450 1453 1457 1460 1462 1465 1467 1469 1471 1472
1383 1386 1392 1374 1367 1372 1375 1375 1377 1379 1381 1384 1386 1388 1390 1392 1395 1397 1400 1402 1404 1406 1408 1411 1413 1416 1419 1422 1425 1428 1431 1435 1438 1442 1445 1448 1451 1454 1457 1460 1462 1464 1466 1467
1382 1382 1377 1365 1360 1362 1368 1369 1367 1371 1374 1377 1381 1384 1385 1387 1390 1393 1395 1398 1400 1402 1404 1407 1409 1412 1415 1418 1421 1424 1427 1430 1434 1437 1440 1443 1446 1449 1452 1455 1457 1459 1460 1461
1377 1378 1374 1356 1351 1352 1362 1367 1359 1362 1366 1370 1375 1384 1382 1383 1385 1388 1391 1393 1396 1398 1400 1403 1406 1408 1411 1414 1417 1420 1423 1427 1430 1433 1436 1439 1442 1445 1447 1450 1452 1453 1454 1455
1370 1370 1358 1344 1343 1349 1367 1359 1350 1352 1356 1362 1367 1371 1375 1378 1381 1384 1387 1389 1392 1395 1397 1400 1403 1406 1409 1412 1414 1417 1421 1424 1427 1430 1432 1435 1438 1441 1443 1445 1447 1448 1449 1450
1361 1364 1358 1339 1341 1347 1347 1344 1344 1346 1350 1355 1360 1366 1370 1374 1377 1380 1383 1386 1389 1392 1395 1398 1401 1404 1406 1409 1412 1416 1419 1421 1424 1427 1429 1432 1434 1436 1439 1440 1442 1442 1443 1443
1343 1342 1334 1333 1335 1337 1339 1342 1343 1345 1348 1352 1356 1361 1366 1370 1374 1378 1381 1384 1387 1390 1393 1396 1399 1402 1404 1407 1410 1413 1416 1419 1421 1424 1426 1428 1431 1432 1434 1436 1437 1437 1437 1437
1333 1331 1330 1331 1332 1335 1338 1340 1342 1344 1346 1350 1353 1358 1363 1367 1371 1375 1379 1382 1385 1388 1391 1394 1397 1400 1403 1405 1408 1411 1414 1416 1418 1421 1423 1425 1427 1429 1430 1431 1431 1431 1431 1430
1327 1325 1326 1328 1330 1333 1336 1338 1340 1343 1346 1348 1352 1356 1360 1364 1368 1372 1376 1380 1383 1386 1389 1392 1395 1398 1401 1404 1406 1409 1411 1414 1416 1418 1420 1422 1423 1425 1426 1426 1427 1426 1426 1425
1319 1319 1322 1323 1326 1330 1333 1336 1338 1341 1344 1347 1351 1354 1358 1362 1366 1370 1374 1378 1381 1384 1387 1390 1393 1396 1399 1402 1404 1406 1408 1411 1413 1415 1417 1418 1419 1420 1421 1422 1422 1421 1420 1419
1311 1314 1317 1319 1323 1326 1329 1333 1336 1339 1342 1346 1349 1353 1356 1360 1364 1368 1372 1375 1378 1382 1385 1388 1391 1394 1397 1399 1402 1404 1406 1408 1410 1411 1413 1414 1414 1415 1415 1416 1416 1415 1414 1413
1309 1311 1314 1316 1319 1323 1326 1330 1334 1337 1340 1344 1347 1351 1354 1358 1362 1366 1369 1373 1376 1380 1383 1386 1389 1392 1395 1397 1399 1401 1403 1405 1407 1408 1409 1410 1410 1410 1410 1409 1408 1407 1407 1406
1306 1308 1310 1313 1316 1319 1323 1327 1330 1334 1337 1341 1345 1348 1352 1355 1359 1363 1367 1370 1374 1377 1381 1384 1387 1390 1392 1395 1397 1398 1400 1402 1403 1404 1405 1405 1405 1405 1404 1403 1402 1400 1399 1398
1302 1305 1307 1309 1312 1316 1319 1323 1326 1330 1334 1338 1342 1345 1349 1353 1357 1360 1364 1368 1371 1375 1378 1381 1384 1387 1390 1392 1394 1396 1397 1399 1399 1400 1401 1401 1400 1400 1399 1397 1395 1394 1392 1390
1298 1301 1304 1306 1309 1313 1316 1320 1323 1327 1331 1335 1339 1343 1347 1350 1354 1358 1362 1366 1370 1373 1377 1380 1382 1385 1387 1389 1391 1393 1394 1395 1395 1396 1396 1395 1395 1394 1393 1391 1389 1387 1385 1384
1294 1296 1299 1302 1305 1309 1313 1317 1321 1324 1328 1332 1336 1340 1344 1348 1351 1356 1360 1364 1368 1371 1375 1378 1380 1383 1385 1387 1388 1389 1390 1391 1391 1391 1390 1390 1389 1388 1387 1385 1383 1380 1378 1376
1290 1293 1296 1300 1303 1307 1310 1314 1318 1322 1326 1330 1334 1338 1342 1346 1351 1355 1359 1362 1366 1369 1373 1376 1378 1380 1382 1383 1385 1385 1386 1386 1386 1386 1385 1384 1383 1382 1380 1378 1376 1373 1371 1368
1285 1289 1293 1297 1301 1304 1308 1311 1315 1319 1323 1328 1332 1336 1341 1345 1350 1354 1357 1361 1365 1368 1371 1373 1375 1377 1379 1380 1381 1381 1382 1381 1381 1380 1380 1378 1377 1375 1373 1371 1369 1366 1363 1361
1280 1285 1289 1293 1297 1301 1305 1309 1312 1317 1322 1326 1331 1335 1339 1344 1349 1353 1356 1360 1363 1366 1369 1371 1372 1374 1375 1376 1377 1377 1377 1377 1376 1375 1374 1372 1371 1369 1367 1364 1362 1359 1356 1353
1277 1282 1286 1291 1295 1299 1303 1307 1312 1316 1321 1325 1330 1335 1339 1343 1348 1352 1356 1359 1362 1364 1366 1368 1370 1371 1372 1372 1372 1372 1372 1372 1371 1369 1368 1366 1364 1362 1359 1357 1354 1351 1348 1345
1275 1280 1285 1289 1293 1298 1302 1307 1312 1316 1320 1325 1330 1334 1339 1343 1347 1351 1354 1358 1360 1362 1364 1366 1367 1368 1368 1368 1368 1368 1367 1366 1365 1364 1362 1360 1357 1355 1352 1349 1346 1343 1340 1337
1275 1280 1284 1289 1294 1298 1303 1308 1313 1317 1322 1327 1332 1336 1339 1343 1347 1351 1354 1356 1359 1361 1362 1363 1364 1364 1365 1364 1364 1363 1362 1361 1359 1357 1355 1353 1350 1348 1345 1342 1338 1335 1332 1329
1277 1281 1286 1290 1294 1299 1304 1309 1314 1319 1324 1329 1333 1337 1341 1344 1347 1350 1353 1356 1358 1359 1360 1361 1361 1361 1361 1360 1359 1358 1357 1355 1353 1350 1348 1345 1343 1340 1337 1334 1331 1327 1324 1321
1280 1284 1289 1293 1297 1301 1306 1311 1316 1321 1326 1330 1334 1339 1342 1345 1348 1350 1352 1354 1356 1357 1358 1358 1358 1357 1356 1355 1354 1352 1350 1348 1346 1344 1341 1338 1335 1332 1329 1326 1322 1319 1315 1312
1285 1289 1293 1298 1302 1306 1310 1314 1318 1323 1328 1332 1335 1339 1343 1345 1348 1350 1351 1353 1354 1354 1354 1354 1354 1353 1352 1350 1348 1346 1344 1342 1339 1337 1334 1330 1327 1324 1320 1317 1314 1310 1307 1303